Regional Weather Roundup
Issued by NWS Charleston, SC

Home | Current Version | Previous Version | Text Only | Print | Product List | Glossary On
Versions: 1 2 3 4 5 6 7 8 9 10 11 12 13 14 15 16 17 18 19 20 21 22 23 24 25 26 27 28 29 30 31 32 33 34 35 36 37 38 39 40 41 42 43 44 45 46 47 48 49 50
000
ASUS42 KCHS 210125
RWRCHS

REGIONAL WEATHER ROUNDUP
NATIONAL WEATHER SERVICE CHARLESTON SC
900 PM EDT MON OCT 20 2014

NOTE: "FAIR" INDICATES FEW OR NO CLOUDS BELOW 12,000 FEET WITH NO
SIGNIFICANT WEATHER AND/OR OBSTRUCTIONS TO VISIBILITY.

NOT ALL STATIONS ARE QUALITY CONTROLLED BY THE NATIONAL
WEATHER SERVICE. USE DATA WITH CAUTION...ESPECIALLY
DEWPOINT OBSERVATIONS.

SCZ027-030-031-034>040-042>050-210200-
...SOUTH CAROLINA...

CITY           SKY/WX    TMP DP  RH WIND       PRES   REMARKS
N CHARLESTON   PTCLDY    66  59  78 CALM      30.00F
WATERFRONT PRK   N/A     72 N/A N/A CALM        N/A
FORT JOHNSON   NOT AVBL
JOHNS ISLAND   PTCLDY    64  63  94 CALM      30.01S
PINOPOLIS        N/A    N/A N/A N/A S3        29.93S
MONCKS CORNER  FAIR      63  63 100 CALM      30.00F
SUMMERVILLE    FAIR      63  63 100 CALM      30.01S
BEAUFORT MCAS  MOCLDY    66  62  87 CALM      30.00S
BEAUFORT ARPT  FAIR      66  64  94 CALM      30.00R
HILTON HEAD IS   N/A     64  63  94 CALM      30.01S
GEORGETOWN     NOT AVBL
WALTERBORO     MOCLDY    64 N/A N/A CALM      30.01S
ORANGEBURG     PTCLDY    59  55  87 CALM      30.00S
BARNWELL       FAIR      61  55  82 CALM      30.01R
AIKEN          FAIR      59  52  77 CALM      30.05R
MANNING        CLOUDY    61 N/A N/A CALM      30.01R
KINGSTREE      NOT AVBL
COLUMBIA       PTCLDY    60  53  77 CALM      29.99F
SUMTER         CLEAR     60  56  85 CALM      29.99S
FLORENCE       CLEAR     60  54  80 CALM      30.00S
MYRTLE BEACH   CLEAR     64  57  77 CALM      30.01S
N MYRTLE BEACH PTCLDY    61  59  93 CALM      30.01S

$$

GAZ063-065-086>088-099>101-113>116-118-119-134-136>141-150-210200-
...GEORGIA...

CITY           SKY/WX    TMP DP  RH WIND       PRES   REMARKS
SAVANNAH ARPT  CLOUDY    70  62  76 CALM      30.00R
HUNTER AAF     CLOUDY    69  63  80 CALM      29.98R
FORT STEWART   CLOUDY    67  63  89 CALM      29.98R
STATESBORO     NOT AVBL
SYLVANIA       PTCLDY    69  66  89 CALM      30.01S
CLAXTON        FAIR      68  68 100 CALM      30.00S
THOMSON        CLEAR     57  57 100 CALM      30.06S
AUGUSTA-BUSH   PTCLDY    59  51  75 CALM      30.00S
AUGUSTA-DANIEL PTCLDY    68  50  52 NW6       30.01S
SWAINSBORO     CLOUDY    63  59  88 MISG      30.01S
VIDALIA        CLOUDY    66  61  82 CALM      30.00S
ALMA           MOCLDY    67  63  87 CALM      29.99R
WAYCROSS       PTCLDY    70  68  93 CALM      29.99R
JESUP          FAIR      68  66  94 CALM      29.99S
BRUNSWICK      PTCLDY    66  63  88 CALM      30.00R
SAINT SIMONS   PTCLDY    72  65  78 SE5       29.99R

$$

SCZ027-028-034-036>038-045-046-048>050-GAZ119-141-210200-
...LAKE AND SUPPLEMENTAL COASTAL OBSERVATIONS...

STATION/POSITION TIME  TEMP    WIND        PRES    WAVE   SWELL
                       AIR SEA DIR/SP/G            HT/PER HT/PER/DIR
                 (UTC) (F)     (DEG/KT/KT) (MB)    (FT/S) (FT/S/D)
UPR LAKE MARION  NOT AVBL
WINYAH BAY       0100   63     310/  2     1016.0S
LAKE MURRAY      0000   65     300/  3/  4 1015.6R
ACE BASIN NERRS  0100   64        CALM     1016.0S
FORT PULASKI     0100          130/  2/  2   N/A
SAPELO ISLAND    NOT AVBL

$$

ANZ835-935-AMZ111-154-330-350-352-354-374-450-454-472-210200-
...C-MAN AND BUOY OBSERVATIONS...

STATION/POSITION TIME  TEMP    WIND        PRES    WAVE   SWELL
                       AIR SEA DIR/SP/G            HT/PER HT/PER/DIR
                 (UTC) (F)     (DEG/KT/KT) (MB)    (FT/S) (FT/S/D)
FOLLY BEACH CMAN 0100   72     190/  4/  4 1016.5S
BUOY 41004       0100   76 80  230/  6/  8 1015.7R   3/ 9   3/ 9
BUOY 41008       0100   76 76  150/  8/ 12 1015.3F   2/ 9   2/ 80/ 9
5E ST. MARYS GA  0100      77                N/A     2/10
FRYING PAN BUOY  0100   76 75  200/ 12/ 17 1016.6R   2/ 9   2/ 90/ 9
BUOY 41025       0100   72     190/ 12/ 17 1017.3R   4/ 8   3/ 60/ 8
CAPE LOOKOUT NC  0100   72     160/ 13/ 14 1016.5F
BUOY 41002       0026   74 80  140/ 10/ 12 1018.2R   3/ 9   3/ 80/ 9
BUOY 41010       0100   79 80  150/  8/ 10 1015.4R   3/10   3/ 60/10
BUOY 41012       NOT AVBL
ST AUGUSTINE FL  0100   77     140/ 11/ 12 1015.9R
CAPERS NEARSHORE 0000   73     220/  6/  6   N/A
FRIPP NEARSHORE  NOT AVBL


$$



USA.gov is the U.S. government's official web portal to all federal, state and local government web resources and services.